Regional Weather Roundup
Issued by NWS

Home | Current Version | Previous Version | Graphics & Text | Print | Product List | Glossary On
Versions: 1 2 3 4 5 6 7 8 9 10 11 12 13 14 15 16 17 18 19 20 21 22 23 24 25 26 27 28 29 30 31 32 33 34 35 36 37 38 39 40 41 42 43 44 45 46 47 48 49 50
000
ASUS43 KFSD 160010
RWRSD

WEATHER ROUNDUP FOR SOUTH DAKOTA
NATIONAL WEATHER SERVICE SIOUX FALLS SD
700 PM CDT MON SEP 15 2014

NOTE: "FAIR" INDICATES FEW OR NO CLOUDS BELOW 12,000 FEET WITH NO
SIGNIFICANT WEATHER AND/OR OBSTRUCTIONS TO VISIBILITY.


SDZ001>005-009-010-012>017-160100-
NORTHWEST AND NORTH CENTRAL SOUTH DAKOTA

CITY           SKY/WX    TMP DP  RH WIND       PRES   REMARKS
BUFFALO          N/A     66  40  38 SE14      30.06F
FAITH            N/A     62  39  42 S13       30.15F
MOBRIDGE       CLEAR     63  39  41 S9        30.15F
$$

SDZ012>016-024>037-041>051-057-063-072>074-160100-
SOUTHWEST AND SOUTH CENTRAL SOUTH DAKOTA

CITY           SKY/WX    TMP DP  RH WIND       PRES   REMARKS
RAPID CTY ARPT SUNNY     66  44  45 S14       30.14F
PIERRE         CLEAR     62  39  42 SE5       30.18F
CUSTER         SUNNY     60  41  49 VRB5      30.23S
ELLSWORTH AFB  SUNNY     67  44  44 S13       30.13F
PHILIP         CLEAR     66  40  38 S12       30.16F
PINE RIDGE     SUNNY     67  42  40 S10       30.17F
WINNER         FAIR      63  36  36 SE5       30.22F
$$

SDZ004>011-016>023-039-040-160100-
NORTHEAST SOUTH DAKOTA

CITY           SKY/WX    TMP DP  RH WIND       PRES   REMARKS
ABERDEEN       CLEAR     60  39  45 SW5       30.20S
WATERTOWN      CLEAR     57  35  43 CALM      30.21F
SISSETON         N/A     61  38  42 NW3       30.19F
$$

SDZ017-020-022-023-036>040-048>070-160100-
SOUTHEAST SOUTH DAKOTA

CITY           SKY/WX    TMP DP  RH WIND       PRES   REMARKS
SIOUX FALLS    CLEAR     60  44  55 NW3       30.23S
HURON          CLEAR     62  33  33 CALM      30.22S
CHAMBERLAIN    CLEAR     60  39  46 SE3       30.22S
MITCHELL       CLEAR     62  41  46 CALM      30.23F
YANKTON        CLEAR     61  39  44 W5        30.24S
$$

ABBREVIATIONS USED IN REMARKS
   TC - TEMPERATURE IN CELSIUS
  WCI - WIND CHILL INDEX
   HX - HEAT INDEX
  VSB - VISIBILITY



USA.gov is the U.S. government's official web portal to all federal, state and local government web resources and services.